| Date | Time | Temp. (oF) | Dew Point (oF) | Rel. Hum. (%) | Press. (in.) | Wind Dir. | Wind Speed (mph) | Hourly Rainfall (in.) |
|
|---|---|---|---|---|---|---|---|---|---|
| 1 | 11/11 | 00:00 | 37 | 24 | 60 | 30.26 | SW | 3 | 0.00 |
| 2 | 11/10 | 23:00 | 37 | 24 | 61 | 30.26 | WNW | 3 | 0.00 |
| 3 | 11/10 | 22:00 | 35 | 24 | 66 | 30.24 | WNW | 4 | 0.00 |
| 4 | 11/10 | 21:00 | 36 | 24 | 64 | 30.22 | SW | 2 | 0.00 |
| 5 | 11/10 | 20:00 | 37 | 23 | 59 | 30.19 | SW | 2 | 0.00 |
| 6 | 11/10 | 19:00 | 38 | 23 | 55 | 30.17 | W | 3 | 0.00 |
| 7 | 11/10 | 18:00 | 40 | 24 | 53 | 30.15 | WNW | 2 | 0.00 |
| 8 | 11/10 | 17:00 | 42 | 24 | 49 | 30.12 | WNW | 7 | 0.00 |
| 9 | 11/10 | 16:00 | 44 | 25 | 48 | 30.09 | WNW | 6 | 0.00 |
| 10 | 11/10 | 15:00 | 44 | 28 | 54 | 30.07 | NW | 7 | 0.00 |
| 11 | 11/10 | 14:00 | 45 | 29 | 55 | 30.07 | WSW | 7 | 0.00 |
| 12 | 11/10 | 13:00 | 47 | 30 | 53 | 30.06 | W | 6 | 0.00 |
| 13 | 11/10 | 12:00 | 45 | 31 | 58 | 30.07 | WNW | 10 | 0.00 |
| 14 | 11/10 | 11:00 | 43 | 30 | 61 | 30.08 | NW | 7 | 0.00 |
| 15 | 11/10 | 10:00 | 43 | 30 | 61 | 30.08 | NNW | 7 | 0.00 |
| 16 | 11/10 | 09:00 | 45 | 33 | 63 | 30.07 | WNW | 5 | 0.00 |
| 17 | 11/10 | 08:00 | 43 | 35 | 75 | 30.06 | SW | 6 | 0.00 |
| 18 | 11/10 | 07:00 | 40 | 34 | 81 | 30.04 | WSW | 6 | 0.00 |
| 19 | 11/10 | 06:00 | 40 | 34 | 79 | 30.00 | SW | 1 | 0.00 |
| 20 | 11/10 | 05:00 | 40 | 34 | 79 | 29.98 | SW | 3 | 0.00 |
| 21 | 11/10 | 04:00 | 41 | 34 | 76 | 29.96 | WSW | 2 | 0.00 |
| 22 | 11/10 | 03:00 | 42 | 33 | 72 | 29.94 | WSW | 2 | 0.00 |
| 23 | 11/10 | 02:00 | 44 | 34 | 70 | 29.94 | SSW | 2 | 0.00 |
| 24 | 11/10 | 01:00 | 44 | 34 | 68 | 29.93 | SW | 2 | 0.00 |